KAL712 RKSS-RKPC

Flight info

Callsign KAL712
Flight time 0h 44m
Altitude 26000
Route BULTI Y711 DOTOL
Aircraft A21N/M-SDE2E3FGHIRWXY/LB1

Departure

Time 2025-09-10 13:06
Airport Gimpo International Airport (RKSS)

Arrival

Time 2025-09-10 13:50
Airport Jeju International Airport (RKPC)
Time Latitude Longitude Altitude Speed Heading
2025-09-10 12:41 37.55620 126.80502 72 ft 0 kts 46°
2025-09-10 12:58 37.55612 126.80492 62 ft 1 kts 46°
2025-09-10 12:59 37.55595 126.80469 64 ft 2 kts 46°
2025-09-10 12:59 37.55585 126.80457 66 ft 2 kts 46°
2025-09-10 12:59 37.55566 126.80431 65 ft 2 kts 46°
2025-09-10 13:00 37.55543 126.80392 62 ft 1 kts 118°
2025-09-10 13:01 37.55549 126.80381 62 ft 0 kts 153°
2025-09-10 13:02 37.55530 126.80393 65 ft 9 kts 153°
2025-09-10 13:02 37.55371 126.80572 72 ft 21 kts 135°
2025-09-10 13:03 37.55172 126.80558 72 ft 17 kts 215°
2025-09-10 13:03 37.55001 126.80725 71 ft 20 kts 135°
2025-09-10 13:03 37.54935 126.80806 69 ft 9 kts 135°
2025-09-10 13:04 37.54822 126.80653 63 ft 0 kts 319°
2025-09-10 13:05 37.54823 126.80651 66 ft 2 kts 319°
2025-09-10 13:05 37.55858 126.79352 194 ft 197 kts 315°
2025-09-10 13:06 37.57988 126.76526 2685 ft 250 kts 314°
2025-09-10 13:06 37.59497 126.72185 5420 ft 312 kts 266°
2025-09-10 13:07 37.57396 126.67105 7916 ft 344 kts 227°
2025-09-10 13:07 37.55544 126.65156 9184 ft 351 kts 211°
2025-09-10 13:07 37.50804 126.64170 11460 ft 362 kts 168°
2025-09-10 13:08 37.43180 126.66893 14003 ft 386 kts 168°
2025-09-10 13:09 37.37882 126.68132 15582 ft 389 kts 170°
2025-09-10 13:09 37.33442 126.69112 16955 ft 390 kts 170°
2025-09-10 13:10 37.28106 126.70287 18628 ft 391 kts 170°
2025-09-10 13:10 37.22706 126.71482 20067 ft 396 kts 171°
2025-09-10 13:11 37.17245 126.72679 21527 ft 402 kts 172°
2025-09-10 13:11 37.14523 126.73278 22253 ft 406 kts 172°
2025-09-10 13:11 37.08920 126.74500 23602 ft 419 kts 173°
2025-09-10 13:13 36.93902 126.77777 25998 ft 462 kts 174°
2025-09-10 13:15 36.66572 126.82726 26018 ft 502 kts 182°
2025-09-10 13:17 36.38610 126.83722 26018 ft 500 kts 185°
2025-09-10 13:19 36.10973 126.80787 26005 ft 497 kts 189°
2025-09-10 13:21 35.83475 126.77801 26007 ft 497 kts 189°
2025-09-10 13:23 35.55890 126.74827 25999 ft 497 kts 189°
2025-09-10 13:25 35.28331 126.71882 25998 ft 498 kts 189°
2025-09-10 13:27 35.00630 126.68933 25989 ft 499 kts 189°
2025-09-10 13:29 34.72895 126.66004 25987 ft 500 kts 189°
2025-09-10 13:30 34.59589 126.64609 24799 ft 468 kts 188°
2025-09-10 13:30 34.53192 126.63934 23837 ft 460 kts 188°
2025-09-10 13:31 34.46828 126.63266 22732 ft 452 kts 188°
2025-09-10 13:31 34.40638 126.62619 21628 ft 445 kts 187°
2025-09-10 13:31 34.37562 126.62298 21090 ft 441 kts 187°
2025-09-10 13:32 34.28467 126.61349 19531 ft 429 kts 187°
2025-09-10 13:33 34.22662 126.60744 18536 ft 413 kts 187°
2025-09-10 13:33 34.16962 126.60150 17453 ft 407 kts 186°
2025-09-10 13:34 34.11370 126.59569 16360 ft 401 kts 186°
2025-09-10 13:34 34.06807 126.59096 15496 ft 396 kts 186°
2025-09-10 13:35 34.01349 126.58497 14457 ft 380 kts 189°
2025-09-10 13:35 33.98848 126.57584 13953 ft 373 kts 207°
2025-09-10 13:35 33.94808 126.53861 13081 ft 366 kts 221°
2025-09-10 13:36 33.89009 126.48050 11888 ft 358 kts 219°
2025-09-10 13:37 33.85179 126.44336 11130 ft 353 kts 219°
2025-09-10 13:37 33.81474 126.40757 10394 ft 348 kts 218°
2025-09-10 13:38 33.77760 126.37193 9634 ft 332 kts 218°
2025-09-10 13:38 33.74250 126.33808 8827 ft 316 kts 218°
2025-09-10 13:39 33.70541 126.31414 8053 ft 291 kts 196°
2025-09-10 13:39 33.68653 126.30727 7698 ft 274 kts 196°
2025-09-10 13:39 33.65136 126.29435 7153 ft 259 kts 196°
2025-09-10 13:40 33.60082 126.27529 6307 ft 248 kts 195°
2025-09-10 13:41 33.56862 126.26315 5775 ft 236 kts 195°
2025-09-10 13:41 33.52373 126.24613 5070 ft 215 kts 195°
2025-09-10 13:42 33.50957 126.24080 4838 ft 213 kts 195°
2025-09-10 13:42 33.48154 126.23028 4395 ft 212 kts 194°
2025-09-10 13:43 33.45347 126.23031 3930 ft 201 kts 143°
2025-09-10 13:43 33.44506 126.24318 3806 ft 196 kts 114°
2025-09-10 13:43 33.43433 126.27080 3401 ft 170 kts 115°
2025-09-10 13:44 33.41998 126.31354 2707 ft 119 kts 71°
2025-09-10 13:45 33.42405 126.32204 2705 ft 119 kts 56°
2025-09-10 13:45 33.43314 126.33855 2540 ft 118 kts 59°
2025-09-10 13:46 33.44168 126.35513 2245 ft 117 kts 59°
2025-09-10 13:46 33.45021 126.37168 1943 ft 115 kts 59°
2025-09-10 13:47 33.45835 126.38766 1608 ft 111 kts 60°
2025-09-10 13:47 33.46260 126.39569 1458 ft 116 kts 59°
2025-09-10 13:47 33.47096 126.41216 1173 ft 116 kts 61°
2025-09-10 13:48 33.48401 126.43739 697 ft 118 kts 58°
2025-09-10 13:49 33.49252 126.45413 380 ft 116 kts 59°
2025-09-10 13:49 33.50104 126.47057 105 ft 116 kts 60°
2025-09-10 13:50 33.50718 126.48259 98 ft 44 kts 58°
2025-09-10 13:50 33.50876 126.48631 99 ft 21 kts 81°
2025-09-10 13:51 33.50887 126.48857 102 ft 14 kts 89°
2025-09-10 13:51 33.50904 126.48993 100 ft 20 kts 66°
2025-09-10 13:51 33.51031 126.49248 99 ft 17 kts 58°
2025-09-10 13:52 33.50874 126.49292 100 ft 14 kts 238°
2025-09-10 13:53 33.50802 126.49154 102 ft 5 kts 231°
2025-09-10 13:53 33.50716 126.49179 99 ft 2 kts 158°
2025-09-10 13:54 33.50706 126.49184 99 ft 0 kts 158°